Location: Hamilton
(37.7830°S, 175.2830°E)
Time: 16:54:08
(UTC+12:00)

Resurs 1-3 - Pass Details

Date: 24 January 2019
Orbit: 630 x 633 km, 98.0° (Epoch: 18 April)

Event Time Altitude Azimuth Distance (km) Brightness Sun altitude
Rises 21:49:49 0° 161° (SSE) 2,960 7.3 -12.9°
Reaches altitude 10° 21:52:07 10° 155° (SSE) 2,043 6.4 -13.3°
Maximum altitude 21:56:24 46° 81° (E) 865 3.9 -13.9°
Enters shadow 21:59:41 16° 12° (NNE) 1,663 5.3 -14.4°
